User: anonymous   Login
Location: Chevoux
(46.3801°N, 4.9476°E)
Time: 01:56:33
(UTC+00:00)
Language:

Transit 4A - Orbit

View from above orbital plane
View from above orbital plane
View from above satellite
View from above satellite

Ground track
Ground track

The orbit data is extracted from the following two-line orbital elements,

1 00116U 61015A   21131.22899446 -.00000059  00000-0  13784-4 0  9995
2 00116  66.8078 126.9137 0071063 143.4978 217.0977 13.91788874 37422
Epoch (UTC): 11 May 2021 05:29:45
Eccentricity: 0.0071063
inclination: 66.8078°
perigee height: 870 km
apogee height: 974 km
right ascension of ascending node: 126.9137°
argument of perigee: 143.4978°
revolutions per day: 13.91788874
mean anomaly at epoch: 217.0977°
orbit number at epoch: 3742

The dashed part of the orbit path shows where the satellite is in the earth's shadow,  

DLR